GW6272 Weather Reports


time (UTC)temp
C
wind
direction
speed
KPH
gust
KPH
rain 1hr
cm
rain 24hr
cm
rain mn
cm
humidity
%
barometer
mb
20260504195955 23 197 8.0 14.5 0.00 0.00 0.00 33 1007.6
20260504195451 23 197 8.0 14.5 0.00 0.00 0.00 33 1007.6
20260504194947 23 197 8.0 14.5 0.00 0.00 0.00 33 1007.6
20260504185946 22 240 3.2 16.1 0.00 0.00 0.00 34 1008.3
20260504185443 22 240 3.2 16.1 0.00 0.00 0.00 34 1008.3
20260504184939 22 240 3.2 16.1 0.00 0.00 0.00 34 1008.3
20260504183937 23 228 11.3 20.9 0.00 0.00 0.00 33 1008.6
20260504183434 23 228 11.3 20.9 0.00 0.00 0.00 33 1008.6
20260504182932 23 228 11.3 20.9 0.00 0.00 0.00 33 1008.6
20260504175930 22 31 1.6 6.4 0.00 0.00 0.00 36 1009.1
20260504175426 22 31 1.6 6.4 0.00 0.00 0.00 36 1009.1
20260504174924 22 31 1.6 6.4 0.00 0.00 0.00 36 1009.1
20260504150402 19 10 3.2 12.9 0.00 0.00 0.00 34 1011.4
20260504130337 10 340 0.0 0.0 0.00 0.00 0.00 63 1012.3
20260504110316 5 2 0.0 0.0 0.00 0.00 0.00 76 1012.5
20260504100303 1 350 0.0 0.0 0.00 0.00 0.00 91 1012.4
20260504080231 2 349 0.0 0.0 0.00 0.00 0.00 90 1012.8
20260504070217 2 349 0.0 0.0 0.00 0.00 0.00 89 1012.5
20260504060207 3 349 0.0 0.0 0.00 0.00 0.00 85 1012.5
20260504050154 3 350 0.0 0.0 0.00 0.00 0.00 85 1012.6
20260504045652 3 350 0.0 0.0 0.00 0.00 0.00 85 1012.6
20260504045151 3 350 0.0 0.0 0.00 0.00 0.00 85 1012.6
20260504040144 5 349 0.0 0.0 0.00 0.00 0.00 77 1012.4
20260504035640 5 349 0.0 0.0 0.00 0.00 0.00 77 1012.4
20260504035137 5 349 0.0 0.0 0.00 0.00 0.00 77 1012.4
20260504034635 5 349 0.0 0.0 0.00 0.00 0.00 76 1012.1
20260504032635 5 352 0.0 0.0 0.00 0.00 0.00 73 1012.4
20260504032132 5 352 0.0 0.0 0.00 0.00 0.00 73 1012.4
20260504031629 5 352 0.0 0.0 0.00 0.00 0.00 73 1012.4
20260504030137 5 353 0.0 0.0 0.00 0.00 0.00 72 1012.2
20260504025634 5 353 0.0 0.0 0.00 0.00 0.00 72 1012.2
20260504025130 5 353 0.0 0.0 0.00 0.00 0.00 72 1012.2
20260504024628 6 354 0.0 0.0 0.00 0.00 0.00 69 1012.2
20260504024124 6 354 0.0 0.0 0.00 0.00 0.00 69 1012.2
20260504020126 8 356 0.0 0.0 0.00 0.00 0.00 61 1012.2
20260504015623 8 356 0.0 0.0 0.00 0.00 0.00 61 1012.2
20260504015120 8 356 0.0 0.0 0.00 0.00 0.00 61 1012.2
20260504014615 8 4 0.0 0.0 0.00 0.00 0.00 60 1011.9
20260504014113 8 4 0.0 0.0 0.00 0.00 0.00 60 1011.9
20260504012113 9 1 0.0 0.0 0.00 0.00 0.00 56 1011.9
20260504011610 9 1 0.0 0.0 0.00 0.00 0.00 56 1011.9
20260504011106 9 1 0.0 0.0 0.00 0.00 0.00 56 1011.9
20260504010122 10 348 0.0 0.0 0.00 0.00 0.00 50 1011.6
20260504005619 10 348 0.0 0.0 0.00 0.00 0.00 50 1011.6
20260504005116 10 348 0.0 0.0 0.00 0.00 0.00 50 1011.6
20260504004614 10 355 0.0 1.6 0.00 0.00 0.00 49 1011.6
20260504004111 10 355 0.0 1.6 0.00 0.00 0.00 49 1011.6
20260504000058 13 338 0.0 3.2 0.00 0.00 0.00 40 1011.2
20260503235556 13 338 0.0 3.2 0.00 0.00 0.00 40 1011.2
20260503235053 13 338 0.0 3.2 0.00 0.00 0.00 40 1011.2
20260503234550 13 325 0.0 3.2 0.00 0.00 0.00 39 1010.9
20260503234048 13 325 0.0 3.2 0.00 0.00 0.00 39 1010.9
20260503230047 15 281 3.2 9.7 0.00 0.00 0.00 34 1011.0
20260503225544 15 281 3.2 9.7 0.00 0.00 0.00 34 1011.0
20260503225038 15 281 3.2 9.7 0.00 0.00 0.00 34 1011.0
20260503224536 16 281 3.2 6.4 0.00 0.00 0.00 32 1010.9
20260503224034 16 281 3.2 6.4 0.00 0.00 0.00 32 1010.9
20260503223532 16 281 3.2 6.4 0.00 0.00 0.00 32 1010.9
20260503220035 16 284 4.8 12.9 0.00 0.00 0.00 34 1010.9
20260503215532 16 284 4.8 12.9 0.00 0.00 0.00 34 1010.9
20260503215029 16 284 4.8 12.9 0.00 0.00 0.00 34 1010.9
20260503214527 15 303 3.2 4.8 0.00 0.00 0.00 33 1010.7
20260503214024 15 303 3.2 4.8 0.00 0.00 0.00 33 1010.7
20260503213522 15 303 3.2 4.8 0.00 0.00 0.00 33 1010.7
20260503210032 17 293 11.3 20.9 0.00 0.00 0.00 30 1010.4
20260503205529 17 293 11.3 20.9 0.00 0.00 0.00 30 1010.4
20260503205026 17 293 11.3 20.9 0.00 0.00 0.00 30 1010.4
20260503204523 17 276 0.0 3.2 0.00 0.00 0.00 33 1010.7
20260503204020 17 276 0.0 3.2 0.00 0.00 0.00 33 1010.7
20260503203517 17 276 0.0 3.2 0.00 0.00 0.00 33 1010.7
20260503203014 16 354 3.2 11.3 0.00 0.00 0.00 31 1010.7
20260503202512 16 296 6.4 9.7 0.00 0.00 0.00 30 1010.8
20260503202010 16 296 6.4 9.7 0.00 0.00 0.00 30 1010.8